Regional Weather Roundup
Issued by NWS

Home | Current Version | Previous Version | Text Only | Print | Product List | Glossary On
Versions: 1 2 3 4 5 6 7 8 9 10 11 12 13 14 15 16 17 18 19 20 21 22 23 24 25 26 27 28 29 30 31 32 33 34 35 36 37 38 39 40 41 42 43 44 45 46 47 48 49 50
000
ASUS43 KDMX 202006
RWRIA

WEATHER ROUNDUP FOR IOWA
NATIONAL WEATHER SERVICE DES MOINES IA
300 PM CDT THU JUL 20 2017

NOTE: "FAIR" INDICATES FEW OR NO CLOUDS BELOW 12,000 FEET WITH NO
SIGNIFICANT WEATHER AND/OR OBSTRUCTIONS TO VISIBILITY.

* - THESE STATIONS ARE NOT NWS STATIONS...THUS NOT UNDER NWS
QUALITY CONTROL.  THEY ALSO DO NOT REPORT WEATHER SUCH
AS PRECIPITATION OR FOG.

IAZ001>003-012>014-020>022-031>034-043>046-202100-
   NORTHWEST IOWA

CITY           SKY/WX    TMP DP  RH WIND       PRES   REMARKS
CARROLL *      SUNNY     93  79  62 VRB5      29.96S HX 110
CHEROKEE *     CLOUDY    88  75  65 E7        29.99S HX  97
DENISON *      SUNNY     95  75  52 CALM      29.98S HX 107
ORANGE CITY *  CLOUDY    88  73  62 NE6       30.00F HX  96
SHELDON *      CLOUDY    88  72  58 NE8       30.01R HX  94
SIOUX CITY     CLOUDY    92  77  61 NE8       29.96F HX 105
SPENCER        PTSUNNY   90  70  51 NE13      30.00F HX  95
STORM LAKE *   CLOUDY    86  75  70 NE8       30.01S HX  95
$$

IAZ055>058-069>071-079>083-090>094-202100-
   SOUTHWEST IOWA

CITY           SKY/WX    TMP DP  RH WIND       PRES   REMARKS
ATLANTIC *     MOSUNNY   93  77  59 S8        29.95F HX 107
AUDUBON *      SUNNY     93  81  66 S7        29.98S HX 113
CLARINDA *     SUNNY     91  79  66 S9        29.99S HX 107
COUNCIL BLFS * SUNNY     93  79  62 VRB6      29.96S HX 110
CRESTON *      SUNNY     93  75  55 SW9       30.00S HX 104
HARLAN  *      SUNNY     91  75  59 VRB6      30.00S HX 102
LAMONI         SUNNY     92  78  63 SW8       29.99S HX 107
RED OAK *      SUNNY     91  77  62 S9        29.96F HX 105
SHENANDOAH *   SUNNY     91  79  66 S9        29.96F HX 107
$$

IAZ047>049-059>061-072>074-084-202100-
   CENTRAL IOWA

CITY           SKY/WX    TMP DP  RH WIND       PRES   REMARKS
AMES           SUNNY     93  78  61 S6        29.95F HX 108
ANKENY *       SUNNY     95  75  52 VRB6      29.95S HX 107
BOONE *        PTSUNNY   91  77  62 CALM      29.96S HX 105
CHARITON *     SUNNY     97  73  46 SW7G15    29.96S HX 107
DES MOINES     MOSUNNY   96  72  45 SW6       29.93F HX 104
GRINNELL*      SUNNY     91  76  62 CALM      29.98S HX 102
KNOXVILLE *    CLOUDY    97  73  46 SW7       29.94S HX 107
MARSHALLTOWN   MOSUNNY   95  76  53 NE3       29.95F HX 108
NEWTON *       SUNNY     93  77  59 SW5       29.96S HX 107
PELLA *        SUNNY     95  73  48 CALM      29.96S HX 104
PERRY *          N/A     93  79  63 CALM      29.96S HX 110
$$

IAZ004>006-015-016-023>025-035-036-202100-
   NORTH CENTRAL IOWA

CITY           SKY/WX    TMP DP  RH WIND       PRES   REMARKS
ALGONA *       MOSUNNY   88  75  66 NE9       30.01R HX  97
CLARION *      MOSUNNY   88  79  74 E6        29.99S HX 102
ESTHERVILLE    MOSUNNY   83  73  72 NE6       30.02F HX  89
FORT DODGE *   MOSUNNY   90  75  62 NE6       29.99S HX 100
MASON CITY     MOSUNNY   85  75  72 E8        30.02R HX  93
FOREST CITY *    N/A     86  73  66 NE8       30.01S HX  93
WEBSTER CITY * PTSUNNY   91  77  62 NE9       29.95F HX 105
IOWA FALLS *     N/A     88  78  72 NE7       30.00R HX 101
$$

IAZ007>011-017>019-026>030-037>042-050>054-066-202100-
   NORTHEAST IOWA

CITY           SKY/WX    TMP DP  RH WIND       PRES   REMARKS
CEDAR RAPIDS   MOSUNNY   91  80  70 VRB3      29.95S HX 109
CHARLES CITY * CLOUDY    84  77  79 NE7       30.00F HX  94
CLINTON *      PTSUNNY   87  79  76 NW7       29.97S HX 101
DECORAH *      CLOUDY    82  72  69 N6        30.00S HX  87
DUBUQUE        CLOUDY    83  76  79 NE9       29.99R HX  91
MONTICELLO *   PTSUNNY   88  79  74 VRB3      29.97S HX 102
OELWEIN *      PTSUNNY   86  79  79 NE8       30.00S HX  99
WATERLOO       CLOUDY    89  75  63 N8        29.96F HX  99
$$

IAZ064-065-067-068-078-202100-
   EAST CENTRAL IOWA

CITY           SKY/WX    TMP DP  RH WIND       PRES   REMARKS
DAVENPORT      MOSUNNY   89  77  67 SW3       29.97F HX 101
IOWA CITY      SUNNY     92  77  61 VRB5      29.96S HX 105
MT. PLEASANT * SUNNY     98  72  43 SW14      29.94S HX 107
MUSCATINE *    SUNNY     93  75  55 VRB6      29.94S HX 104
QUAD CITIES    MOSUNNY   93  77  59 NW6       29.94F HX 107
$$

IAZ062-063-075>077-085>089-095>099-202100-
   SOUTHEAST IOWA

CITY           SKY/WX    TMP DP  RH WIND       PRES   REMARKS
BURLINGTON     SUNNY     94  80  64 SW12      29.95S HX 113
FAIRFIELD *    SUNNY     97  73  46 SW6       29.94S HX 107
FORT MADISON * SUNNY     93  79  62 SW8       29.96S HX 110
KEOKUK *       SUNNY     95  75  52 SW14      29.95S HX 107
OSKALOOSA *      N/A     95  74  50 W8        29.95F HX 106
CENTERVILLE *    N/A     93  75  55 SW9       29.99S HX 104
OTTUMWA        SUNNY     99  71  40 W5        29.93F HX 107
WASHINGTON *   SUNNY     93  77  59 VRB5      29.96S HX 107
$$

ABBREVIATIONS USED IN REMARKS
   TC - TEMPERATURES IN CELSIUS
  WCI - WIND CHILL INDEX
   HX - HEAT INDEX
  VSB - VISIBILITY
$$




USA.gov is the U.S. government's official web portal to all federal, state and local government web resources and services.